LDRI

Rijeka Airport

Airport
ICAO code
LDRI
IATA Code
RJK
Summary
ICAO Region
EUR
ICAO Territory
Location

Omisalj, Krk

Serving
Rijeka
Elevation
278 ft
Coordinates
45° 13' 0" N , 14° 34' 15" E
KCC
Metar
LDRI 260000Z 11005KT CAVOK 07/07 Q1008

Rijeka Airport is the international airport serving Rijeka, Croatia.

Climatology

Humid subtropical climate (Köppen climate classification Cfa)

Runways

Designator Length Width Surface Rops
14/32 2488 45 PEM Yes/Yes

Airport map

Aerial View

SKYbrary Partners:

Safety knowledge contributed by: